Simultaneous Nadir Overpasses (SNOs) Predictions

Prediction of SNOs between NOAA-19 and TERRA Satellite Orbit:

Table of predicted SNOs for the next 14.0 days since TLE Epoch: 11/4/2017
Index Date (NOAA-19) Time (NOAA-19) Lat,Lon (NOAA-19) SZA (NOAA-19 ) Date (TERRA) Time (TERRA) Lat,Lon (TERRA) SZA (TERRA ) Distance(km) Time Diff (sec)
1 11/05/2017 02:23:29 -76.17, -22.75 87.62 11/05/2017 02:23:42 -76.16, -22.67 87.62 2.44 13
2 11/05/2017 03:14:23 75.75, 146.03 92.10 11/05/2017 03:13:15 75.80, 143.86 91.97 59.53 68
3 11/07/2017 07:57:16 76.19, 73.83 93.07 11/07/2017 07:57:25 76.18, 73.95 93.07 3.32 9
4 11/07/2017 08:48:08 -75.95,-118.04 87.10 11/07/2017 08:46:56 -76.01,-118.95 87.13 25.41 72
5 11/09/2017 13:30:56 -76.19, 170.47 86.29 11/09/2017 13:31:10 -76.18, 170.53 86.29 1.85 14
6 11/09/2017 14:21:51 75.77, -20.76 93.42 11/09/2017 14:20:43 75.82, -22.95 93.30 60.00 68
7 11/11/2017 19:04:43 76.17, -92.84 94.32 11/11/2017 19:04:53 76.19, -92.89 94.33 2.27 10
8 11/11/2017 19:55:36 -76.02, 75.00 85.79 11/11/2017 19:54:23 -76.07, 74.38 85.80 17.52 73
9 11/14/2017 00:38:22 -76.17, 3.80 85.09 11/14/2017 00:38:38 -76.19, 3.69 85.08 3.48 16
10 11/14/2017 01:29:19 75.80, 172.38 94.66 11/14/2017 01:28:10 75.87, 170.34 94.56 55.92 69
11 11/16/2017 06:12:11 76.22, 100.26 95.51 11/16/2017 06:12:20 76.23, 100.39 95.53 3.72 9




NCC Satellite Simultaneous Nadir Overpasses (SNOs) Prediction Service
